Weather in Syngryanovo

Russia / Republic of Bashkortostan     55°21′53″N   53°54′12″E
temp.,
°C
wind,
m/s
gust,
m/s
humid.,
%
clouds,
%
prec.,
mm/h
press.,
hPa
HPBL,
m
2 march, tue
tue223:00−20sw339975 0.0 101939
02:00−21sw349841 0.0 101781
05:00−20ssw5109538 0.0 1015192
08:00−17ssw81495100 0.0 1011309
11:00−13ssw91694100 0.4 1008456
14:00−9ssw91593100 0.8 1004553
17:00−7ssw91594100 1.9 1001651
20:00−5ssw91693100 0.9 999630
3 march, wed
wed323:00−3sw8149499 1.2 998421
02:00−2wsw6129398 0.6 997497
05:00−3wsw6109399 0.7 998542
08:00−5wsw51095100 0.1 998353
11:00−4wsw599597 0.2 1000424
14:00−3w5893100 0.3 1000536
17:00−3wsw6991100 0.4 1000677
20:00−6wsw5109493 0.2 1000325
4 march, thu
thu423:00−6w5119596 0.6 1002466
02:00−7wnw61193100 0.7 1002530
05:00−12w4109698 0.8 1004199
08:00−13wsw499786 0.0 1005196
11:00−10wsw599488 0.1 1006308
14:00−6wsw61092100 0.1 1005556
17:00−5sw71190100 0.3 1004745
20:00−6ssw91591100 0.4 1002718
5 march, fri
fri523:00−5ssw101892100 0.6 1000754
02:00−1sw111887100 0.8 9961072
05:00−1sw111888100 0.9 9961022
08:00−2wsw91695100 0.8 997966
11:00−1w81388100 1.9 1000908
14:00−3w7127899 0.1 1002837
17:00−3w5984100 0.1 1005649
20:00−7w3792100 0.0 1007150
6 march, sat
sat623:00−12w339793 0.0 100930
02:00−14w2297100 0.0 101121
05:00−14ssw1197100 0.0 101120
08:00−11ese2495100 0.0 1009138
11:00−9e61095100 1.4 1004298
14:00−6e5896100 4.3 999388
17:00−7nne6896100 8.4 997232
20:00−9nw61095100 2.0 999465